• Join FlightAware (Why Join?)
  • Login
  • US Flag 
02:08PM EDT


 

Airport Tracker/Info


-or-


 

Live Flight TrackerFlight Track Log ✈ ASQ5421 ✈ 07-May-2013 ✈ KGNV - KATL

Flight Track Log - Related Links

Times and Time Zones

All times are in EDT time to prevent confusion due to time zone crossing. See the ASQ5421 flight status page for this flight to view local times or setup timezone preferences in your user account.

Time Position Orientation Groundspeed Altitude Reporting Facility
EDT Latitude Longitude Course Direction KTS MPH feet Rate Location/Type
12:41PM 29.7392 -82.3064 339° North 217 250 3,000  Level Jacksonville Center
12:42PM 29.7997 -82.3253 345° North 260 299 4,900 2,460 Climbing Jacksonville Center
12:43PM 29.8747 -82.3297 357° North 260 299 7,900 2,940 Climbing Jacksonville Center
12:44PM 29.9564 -82.3389 354° North 265 305 10,800 1,980 Climbing Jacksonville Center
12:45PM 30.0317 -82.3528 351° North 276 318 11,900 1,320 Climbing Jacksonville Center
12:46PM 30.1275 -82.3619 355° North 310 357 13,500 1,500 Climbing Jacksonville Center
12:47PM 30.2217 -82.3708 355° North 331 381 14,900 1,500 Climbing Jacksonville Center
12:48PM 30.3178 -82.3800 355° North 342 394 16,500 1,320 Climbing Jacksonville Center
12:49PM 30.4158 -82.3917 354° North 352 405 17,600 1,080 Climbing Jacksonville Center
12:50PM 30.5183 -82.4006 356° North 352 405 18,700 1,080 Climbing Jacksonville Center
12:51PM 30.6228 -82.4122 355° North 358 412 19,800 960 Climbing Jacksonville Center
12:52PM 30.7356 -82.4261 354° North 364 419 20,700 840 Climbing Jacksonville Center
12:53PM 30.8442 -82.4378 355° North 374 430 21,500 600 Climbing Jacksonville Center
12:54PM 30.9547 -82.4492 355° North 380 437 22,000 240 Climbing Jacksonville Center
12:55PM 31.0697 -82.4608 355° North 401 461 22,000  Level Jacksonville Center
12:56PM 31.1886 -82.4725 355° North 413 475 22,000  Level Jacksonville Center
12:57PM 31.3036 -82.4864 354° North 418 481 22,000  Level Jacksonville Center
12:58PM 31.4269 -82.4958 356° North 428 493 22,000  Level Jacksonville Center
12:59PM 31.5439 -82.5097 354° North 428 493 22,000  Level Jacksonville Center
01:00PM 31.6544 -82.5461 344° North 422 486 22,000  Level Jacksonville Center
01:01PM 31.7653 -82.5775 346° North 409 471 22,000  Level Jacksonville Center
01:02PM 31.8719 -82.6136 344° North 404 465 22,000  Level Jacksonville Center
01:03PM 31.9783 -82.6453 346° North 399 459 22,000  Level Jacksonville Center
01:05PM 32.1944 -82.7158 345° North 399 459 22,000  Level Atlanta Center
01:06PM 32.2786 -82.7836 326° Northwest 380 437 22,000  Level Atlanta Center
01:07PM 32.3567 -82.8636 319° Northwest 374 430 22,000  Level Atlanta Center
01:08PM 32.4325 -82.9486 317° Northwest 374 430 22,000  Level Atlanta Center
01:09PM 32.5086 -83.0314 317° Northwest 369 425 22,000  Level Atlanta Center
01:10PM 32.5842 -83.1144 317° Northwest 369 425 22,000  Level Atlanta Center
01:11PM 32.6600 -83.2000 316° Northwest 369 425 22,000  Level Atlanta Center
01:12PM 32.7358 -83.2808 318° Northwest 369 425 22,000  Level Atlanta Center
01:13PM 32.8114 -83.3642 317° Northwest 369 425 22,000 -900 Level Atlanta Center
01:14PM 32.8869 -83.4450 318° Northwest 369 425 20,200 -1,860 Descending Atlanta Center
01:15PM 32.9625 -83.5289 317° Northwest 368 423 18,300 -1,860 Descending Atlanta Center
01:16PM 33.0358 -83.6053 319° Northwest 363 418 16,500 -1,920 Descending Atlanta Center
01:17PM 33.1153 -83.6967 316° Northwest 363 418 14,500 -1,980 Descending Atlanta Center
01:17PM 33.1667 -83.7667 311° West 349 402 13,000 -1,320 Descending Atlanta TRACON
01:19PM 33.2333 -83.8333 320° Northwest 279 321 12,000 -1,500 Descending Atlanta TRACON
01:20PM 33.2833 -83.9167 306° West 274 315 9,900 -2,160 Descending Atlanta TRACON
01:21PM 33.3350 -83.9867 311° West 270 311 7,500 -2,100 Descending Atlanta Center
01:22PM 33.3997 -84.0239 334° Northwest 257 296 5,600 -1,260 Descending Atlanta Center
01:23PM 33.4708 -84.0464 345° North 253 291 5,000 -600 Descending Atlanta Center
01:24PM 33.5375 -84.0686 344° North 248 285 4,400 -540 Descending Atlanta Center
01:25PM 33.5833 -84.0961 333° Northwest 208 239 4,000 -780 Descending Atlanta Center
01:26PM 33.6333 -84.1333 328° Northwest 194 223 3,000 -600 Descending Atlanta TRACON
01:26PM 33.6333 -84.1833 270° West 199 229 3,000  Level Atlanta TRACON
01:27PM 33.6333 -84.2333 270° West 183 211 3,000 -60 Level Atlanta TRACON
01:28PM 33.6333 -84.3000 270° West 179 206 2,900 -540 Descending Atlanta TRACON
01:29PM 33.6333 -84.3500 270° West 157 181 2,000 -840 Descending Atlanta TRACON
01:30PM 33.6333 -84.4000 270° West 144 166 1,300 -720 Descending Atlanta TRACON
01:32PM 33.6367 -84.4279 64° Northeast  Level Estimated
01:39PM 33.6367 -84.4279 64° Northeast  Level Estimated